Time,TemperatureF,DewpointF,PressureIn,WindDirection,WindDirectionDegrees,WindSpeedMPH,WindSpeedGustMPH,Humidity,HourlyPrecipIn,Conditions,Clouds,dailyrainin,SoftwareType,DateUTC
2013-02-05 00:04:00,14.0,1.2,29.87,SW,225,1.0,8.0,56,0.00,,,0.00,Weather View 32 v70,2013-02-05 05:04:00,
2013-02-05 00:09:00,14.0,1.2,29.87,SW,225,0.0,8.0,56,0.00,,,0.00,Weather View 32 v70,2013-02-05 05:09:00,
2013-02-05 00:19:00,14.0,1.6,29.88,WNW,292,1.0,8.0,57,0.00,,,0.00,Weather View 32 v70,2013-02-05 05:19:00,
2013-02-05 00:24:00,14.0,1.6,29.88,West,270,3.0,8.0,57,0.00,,,0.00,Weather View 32 v70,2013-02-05 05:24:00,
2013-02-05 00:29:00,14.0,1.2,29.87,WNW,292,1.0,7.0,56,0.00,,,0.00,Weather View 32 v70,2013-02-05 05:29:00,
2013-02-05 00:34:00,14.0,1.2,29.88,SE,135,1.0,7.0,56,0.00,,,0.00,Weather View 32 v70,2013-02-05 05:34:00,
2013-02-05 00:42:00,14.0,0.8,29.88,SSE,158,3.0,9.0,55,0.00,,,0.00,Weather View 32 v70,2013-02-05 05:42:00,
2013-02-05 00:49:00,14.0,0.8,29.88,South,180,3.0,9.0,55,0.00,,,0.00,Weather View 32 v70,2013-02-05 05:49:00,
2013-02-05 00:59:00,14.0,0.8,29.88,South,180,0.0,9.0,55,0.00,,,0.00,Weather View 32 v70,2013-02-05 05:59:00,
2013-02-05 01:09:00,14.0,1.6,29.87,SSW,202,0.0,9.0,57,0.00,,,0.00,Weather View 32 v70,2013-02-05 06:09:00,
2013-02-05 01:19:00,14.0,1.2,29.89,WSW,248,1.0,9.0,56,0.00,,,0.00,Weather View 32 v70,2013-02-05 06:19:00,
2013-02-05 01:29:00,13.0,0.6,29.89,SE,135,0.0,9.0,57,0.00,,,0.00,Weather View 32 v70,2013-02-05 06:29:00,
2013-02-05 01:39:00,13.0,1.0,29.90,SSE,158,0.0,9.0,58,0.00,,,0.00,Weather View 32 v70,2013-02-05 06:39:00,
2013-02-05 01:44:00,13.0,1.4,29.89,SSW,202,0.0,8.0,59,0.00,,,0.00,Weather View 32 v70,2013-02-05 06:44:00,
2013-02-05 01:54:00,13.0,0.6,29.90,SSW,202,0.0,6.0,57,0.00,,,0.00,Weather View 32 v70,2013-02-05 06:54:00,
2013-02-05 02:04:00,13.0,1.7,29.91,WNW,292,1.0,6.0,60,0.00,,,0.00,Weather View 32 v70,2013-02-05 07:04:00,
2013-02-05 02:14:00,13.0,1.7,29.90,SSW,202,1.0,6.0,60,0.00,,,0.00,Weather View 32 v70,2013-02-05 07:14:00,
2013-02-05 02:24:00,12.0,0.8,29.91,West,270,0.0,6.0,60,0.00,,,0.00,Weather View 32 v70,2013-02-05 07:24:00,
2013-02-05 02:34:00,12.0,1.1,29.91,SSE,158,6.0,8.0,61,0.00,,,0.00,Weather View 32 v70,2013-02-05 07:34:00,
2013-02-05 02:43:00,12.0,0.8,29.91,SSE,158,0.0,8.0,60,0.00,,,0.00,Weather View 32 v70,2013-02-05 07:43:00,
2013-02-05 02:49:00,12.0,1.8,29.91,SSW,202,0.0,8.0,63,0.00,,,0.00,Weather View 32 v70,2013-02-05 07:49:00,
2013-02-05 02:59:00,10.0,0.6,29.91,WSW,248,0.0,8.0,65,0.00,,,0.00,Weather View 32 v70,2013-02-05 07:59:00,
2013-02-05 03:09:00,10.0,1.2,29.91,WNW,292,0.0,8.0,67,0.00,,,0.00,Weather View 32 v70,2013-02-05 08:09:00,
2013-02-05 03:19:00,9.0,0.6,29.91,West,270,0.0,8.0,68,0.00,,,0.00,Weather View 32 v70,2013-02-05 08:19:00,
2013-02-05 03:29:00,9.0,1.2,29.92,WSW,248,0.0,8.0,70,0.00,,,0.00,Weather View 32 v70,2013-02-05 08:29:00,
2013-02-05 03:39:00,8.0,0.6,29.92,WSW,248,0.0,3.0,71,0.00,,,0.00,Weather View 32 v70,2013-02-05 08:39:00,
2013-02-05 03:49:00,8.0,0.9,29.92,WNW,292,0.0,3.0,72,0.00,,,0.00,Weather View 32 v70,2013-02-05 08:49:00,
2013-02-05 03:54:00,8.0,0.9,29.92,SW,225,0.0,3.0,72,0.00,,,0.00,Weather View 32 v70,2013-02-05 08:54:00,
2013-02-05 04:04:00,7.0,0.5,29.92,WNW,292,0.0,3.0,74,0.00,,,0.00,Weather View 32 v70,2013-02-05 09:04:00,
2013-02-05 04:14:00,7.0,0.5,29.92,SE,135,0.0,2.0,74,0.00,,,0.00,Weather View 32 v70,2013-02-05 09:14:00,
2013-02-05 04:24:00,7.0,0.8,29.93,West,270,0.0,2.0,75,0.00,,,0.00,Weather View 32 v70,2013-02-05 09:24:00,
2013-02-05 04:29:00,7.0,0.8,29.93,West,270,0.0,2.0,75,0.00,,,0.00,Weather View 32 v70,2013-02-05 09:29:00,
2013-02-05 04:39:00,7.0,0.8,29.94,WNW,292,0.0,2.0,75,0.00,,,0.00,Weather View 32 v70,2013-02-05 09:39:00,
2013-02-05 04:44:00,7.0,0.8,29.93,WNW,292,0.0,2.0,75,0.00,,,0.00,Weather View 32 v70,2013-02-05 09:44:00,
2013-02-05 04:54:00,7.0,1.3,29.94,West,270,0.0,2.0,77,0.00,,,0.00,Weather View 32 v70,2013-02-05 09:54:00,
2013-02-05 05:04:00,7.0,1.6,29.94,WNW,292,0.0,2.0,78,0.00,,,0.00,Weather View 32 v70,2013-02-05 10:04:00,
2013-02-05 05:09:00,6.0,0.4,29.94,WNW,292,0.0,2.0,77,0.00,,,0.00,Weather View 32 v70,2013-02-05 10:09:00,
2013-02-05 05:19:00,7.0,1.0,29.93,West,270,0.0,1.0,76,0.00,,,0.00,Weather View 32 v70,2013-02-05 10:19:00,
2013-02-05 05:29:00,7.0,1.0,29.93,WSW,248,0.0,1.0,76,0.00,,,0.00,Weather View 32 v70,2013-02-05 10:29:00,
2013-02-05 05:34:00,7.0,1.0,29.93,SW,225,0.0,2.0,76,0.00,,,0.00,Weather View 32 v70,2013-02-05 10:34:00,
2013-02-05 05:45:00,7.0,1.3,29.95,WNW,292,0.0,2.0,77,0.00,,,0.00,Weather View 32 v70,2013-02-05 10:45:00,
2013-02-05 05:54:00,7.0,1.0,29.95,SW,225,0.0,2.0,76,0.00,,,0.00,Weather View 32 v70,2013-02-05 10:54:00,
2013-02-05 06:04:00,7.0,1.3,29.95,WSW,248,0.0,2.0,77,0.00,,,0.00,Weather View 32 v70,2013-02-05 11:04:00,
2013-02-05 06:09:00,7.0,1.3,29.95,WNW,292,0.0,2.0,77,0.00,,,0.00,Weather View 32 v70,2013-02-05 11:09:00,
2013-02-05 06:19:00,6.0,0.1,29.95,WNW,292,1.0,3.0,76,0.00,,,0.00,Weather View 32 v70,2013-02-05 11:19:00,
2013-02-05 06:24:00,6.0,0.4,29.95,WNW,292,1.0,3.0,77,0.00,,,0.00,Weather View 32 v70,2013-02-05 11:24:00,
2013-02-05 06:29:00,6.0,0.4,29.95,SW,225,0.0,3.0,77,0.00,,,0.00,Weather View 32 v70,2013-02-05 11:29:00,
2013-02-05 06:39:00,7.0,0.2,29.96,West,270,2.0,3.0,73,0.00,,,0.00,Weather View 32 v70,2013-02-05 11:39:00,
2013-02-05 06:44:00,8.0,0.9,29.96,WSW,248,3.0,5.0,72,0.00,,,0.00,Weather View 32 v70,2013-02-05 11:44:00,
2013-02-05 06:54:00,9.0,0.3,29.96,WNW,292,2.0,6.0,67,0.00,,,0.00,Weather View 32 v70,2013-02-05 11:54:00,
2013-02-05 06:59:00,9.0,0.0,29.96,WSW,248,4.0,6.0,66,0.00,,,0.00,Weather View 32 v70,2013-02-05 11:59:00,
2013-02-05 07:09:00,9.0,0.0,29.97,WNW,292,2.0,6.0,66,0.00,,,0.00,Weather View 32 v70,2013-02-05 12:09:00,
2013-02-05 07:19:00,9.0,0.0,29.97,SE,135,0.0,6.0,66,0.00,,,0.00,Weather View 32 v70,2013-02-05 12:19:00,
2013-02-05 07:24:00,9.0,0.0,29.97,WSW,248,1.0,6.0,66,0.00,,,0.00,Weather View 32 v70,2013-02-05 12:24:00,
2013-02-05 07:34:00,9.0,-0.7,29.97,SSE,158,2.0,7.0,64,0.00,,,0.00,Weather View 32 v70,2013-02-05 12:34:00,
2013-02-05 07:44:00,9.0,-1.7,29.98,WNW,292,1.0,7.0,61,0.00,,,0.00,Weather View 32 v70,2013-02-05 12:44:00,
2013-02-05 07:49:00,10.0,-0.8,29.98,West,270,3.0,7.0,61,0.00,,,0.00,Weather View 32 v70,2013-02-05 12:49:00,
2013-02-05 07:54:00,10.0,-0.8,29.98,West,270,3.0,7.0,61,0.00,,,0.00,Weather View 32 v70,2013-02-05 12:54:00,
2013-02-05 07:59:00,10.0,-0.8,29.98,WNW,292,1.0,7.0,61,0.00,,,0.00,Weather View 32 v70,2013-02-05 12:59:00,
2013-02-05 08:09:00,10.0,-0.8,29.99,WSW,248,3.0,7.0,61,0.00,,,0.00,Weather View 32 v70,2013-02-05 13:09:00,
2013-02-05 08:19:00,10.0,-0.8,29.99,WSW,248,1.0,7.0,61,0.00,,,0.00,Weather View 32 v70,2013-02-05 13:19:00,
2013-02-05 08:24:00,11.0,-0.2,30.00,South,180,3.0,7.0,60,0.00,,,0.00,Weather View 32 v70,2013-02-05 13:24:00,
2013-02-05 08:29:00,11.0,-0.2,30.00,SSW,202,1.0,6.0,60,0.00,,,0.00,Weather View 32 v70,2013-02-05 13:29:00,
2013-02-05 08:39:00,11.0,-0.5,29.99,SSW,202,2.0,6.0,59,0.00,,,0.00,Weather View 32 v70,2013-02-05 13:39:00,
2013-02-05 08:47:00,11.0,-0.5,29.99,South,180,1.0,6.0,59,0.00,,,0.00,Weather View 32 v70,2013-02-05 13:47:00,
2013-02-05 08:54:00,12.0,0.1,30.00,South,180,2.0,6.0,58,0.00,,,0.00,Weather View 32 v70,2013-02-05 13:54:00,
2013-02-05 08:59:00,12.0,0.1,30.00,SSE,158,1.0,6.0,58,0.00,,,0.00,Weather View 32 v70,2013-02-05 13:59:00,
2013-02-05 09:09:00,12.0,-0.3,30.00,WNW,292,3.0,6.0,57,0.00,,,0.00,Weather View 32 v70,2013-02-05 14:09:00,
2013-02-05 09:19:00,13.0,0.6,30.00,WSW,248,1.0,6.0,57,0.00,,,0.00,Weather View 32 v70,2013-02-05 14:19:00,
2013-02-05 09:24:00,13.0,0.6,29.99,South,180,3.0,6.0,57,0.00,,,0.00,Weather View 32 v70,2013-02-05 14:24:00,
2013-02-05 09:34:00,12.0,-0.3,30.01,SSE,158,2.0,9.0,57,0.00,,,0.00,Weather View 32 v70,2013-02-05 14:34:00,
2013-02-05 09:44:00,13.0,0.6,30.00,WSW,248,8.0,9.0,57,0.00,,,0.00,Weather View 32 v70,2013-02-05 14:44:00,
2013-02-05 09:49:00,14.0,1.6,30.00,WSW,248,3.0,9.0,57,0.00,,,0.00,Weather View 32 v70,2013-02-05 14:49:00,
2013-02-05 09:54:00,14.0,1.6,30.00,WNW,292,3.0,9.0,57,0.00,,,0.00,Weather View 32 v70,2013-02-05 14:54:00,
2013-02-05 10:04:00,14.0,1.2,30.00,SSE,158,1.0,9.0,56,0.00,,,0.00,Weather View 32 v70,2013-02-05 15:04:00,
2013-02-05 10:09:00,14.0,0.8,30.00,WSW,248,3.0,9.0,55,0.00,,,0.00,Weather View 32 v70,2013-02-05 15:09:00,
2013-02-05 10:14:00,14.0,1.2,30.01,South,180,3.0,9.0,56,0.00,,,0.00,Weather View 32 v70,2013-02-05 15:14:00,
2013-02-05 10:24:00,14.0,1.2,30.01,WNW,292,2.0,9.0,56,0.00,,,0.00,Weather View 32 v70,2013-02-05 15:24:00,
2013-02-05 10:29:00,15.0,2.1,30.01,SSW,202,3.0,9.0,56,0.00,,,0.00,Weather View 32 v70,2013-02-05 15:29:00,
2013-02-05 10:34:00,15.0,2.1,30.01,SE,135,3.0,8.0,56,0.00,,,0.00,Weather View 32 v70,2013-02-05 15:34:00,
2013-02-05 10:39:00,15.0,2.1,30.01,WSW,248,1.0,8.0,56,0.00,,,0.00,Weather View 32 v70,2013-02-05 15:39:00,
2013-02-05 10:48:00,16.0,3.5,30.01,South,180,1.0,8.0,57,0.00,,,0.00,Weather View 32 v70,2013-02-05 15:48:00,
2013-02-05 10:54:00,16.0,3.8,30.01,South,180,2.0,8.0,58,0.00,,,0.00,Weather View 32 v70,2013-02-05 15:54:00,
2013-02-05 11:04:00,16.0,3.5,30.00,South,180,3.0,8.0,57,0.00,,,0.00,Weather View 32 v70,2013-02-05 16:04:00,
2013-02-05 11:14:00,16.0,3.8,30.00,SSE,158,3.0,9.0,58,0.00,,,0.00,Weather View 32 v70,2013-02-05 16:14:00,
2013-02-05 11:24:00,17.0,4.0,30.00,WSW,248,2.0,9.0,56,0.00,,,0.00,Weather View 32 v70,2013-02-05 16:24:00,
2013-02-05 11:29:00,17.0,4.0,29.99,South,180,3.0,9.0,56,0.00,,,0.00,Weather View 32 v70,2013-02-05 16:29:00,
2013-02-05 11:34:00,17.0,4.4,29.99,South,180,3.0,9.0,57,0.00,,,0.00,Weather View 32 v70,2013-02-05 16:34:00,
2013-02-05 11:44:00,17.0,5.1,29.99,South,180,2.0,9.0,59,0.00,,,0.00,Weather View 32 v70,2013-02-05 16:44:00,
2013-02-05 11:49:00,17.0,4.8,29.98,SE,135,1.0,9.0,58,0.00,,,0.00,Weather View 32 v70,2013-02-05 16:49:00,
2013-02-05 11:59:00,17.0,4.4,29.98,SE,135,3.0,9.0,57,0.00,,,0.00,Weather View 32 v70,2013-02-05 16:59:00,
2013-02-05 12:09:00,18.0,6.5,29.98,SSE,158,4.0,9.0,60,0.00,,,0.00,Weather View 32 v70,2013-02-05 17:09:00,
2013-02-05 12:14:00,18.0,5.7,29.97,SE,135,2.0,8.0,58,0.00,,,0.00,Weather View 32 v70,2013-02-05 17:14:00,
2013-02-05 12:24:00,18.0,4.9,29.97,SSE,158,5.0,7.0,56,0.00,,,0.00,Weather View 32 v70,2013-02-05 17:24:00,
2013-02-05 12:29:00,19.0,6.3,29.97,SSE,158,1.0,7.0,57,0.00,,,0.00,Weather View 32 v70,2013-02-05 17:29:00,
2013-02-05 12:39:00,19.0,5.5,29.98,SE,135,1.0,6.0,55,0.00,,,0.00,Weather View 32 v70,2013-02-05 17:39:00,
2013-02-05 12:49:00,19.0,5.5,29.97,SSW,202,2.0,6.0,55,0.00,,,0.00,Weather View 32 v70,2013-02-05 17:49:00,
2013-02-05 12:54:00,20.0,6.4,29.97,SSE,158,3.0,6.0,55,0.00,,,0.00,Weather View 32 v70,2013-02-05 17:54:00,
2013-02-05 13:04:00,20.0,6.0,29.97,SSE,158,1.0,6.0,54,0.00,,,0.00,Weather View 32 v70,2013-02-05 18:04:00,
2013-02-05 13:09:00,20.0,6.0,29.97,SE,135,2.0,6.0,54,0.00,,,0.00,Weather View 32 v70,2013-02-05 18:09:00,
2013-02-05 13:19:00,21.0,7.4,29.96,South,180,1.0,6.0,55,0.00,,,0.00,Weather View 32 v70,2013-02-05 18:19:00,
2013-02-05 13:29:00,21.0,6.1,29.96,West,270,1.0,6.0,52,0.00,,,0.00,Weather View 32 v70,2013-02-05 18:29:00,
2013-02-05 13:34:00,21.0,6.1,29.96,SE,135,3.0,6.0,52,0.00,,,0.00,Weather View 32 v70,2013-02-05 18:34:00,
2013-02-05 13:44:00,21.0,6.1,29.96,SE,135,2.0,5.0,52,0.00,,,0.00,Weather View 32 v70,2013-02-05 18:44:00,
2013-02-05 13:50:00,22.0,7.1,29.96,SE,135,2.0,5.0,52,0.00,,,0.00,Weather View 32 v70,2013-02-05 18:50:00,
2013-02-05 13:59:00,22.0,6.6,29.96,South,180,1.0,5.0,51,0.00,,,0.00,Weather View 32 v70,2013-02-05 18:59:00,
2013-02-05 14:09:00,22.0,7.1,29.96,SE,135,3.0,5.0,52,0.00,,,0.00,Weather View 32 v70,2013-02-05 19:09:00,
2013-02-05 14:14:00,22.0,6.6,29.96,South,180,2.0,5.0,51,0.00,,,0.00,Weather View 32 v70,2013-02-05 19:14:00,
2013-02-05 14:24:00,23.0,8.4,29.96,South,180,1.0,5.0,53,0.00,,,0.00,Weather View 32 v70,2013-02-05 19:24:00,
2013-02-05 14:34:00,23.0,7.6,29.96,South,180,1.0,5.0,51,0.00,,,0.00,Weather View 32 v70,2013-02-05 19:34:00,
2013-02-05 14:44:00,23.0,7.6,29.96,SSE,158,1.0,5.0,51,0.00,,,0.00,Weather View 32 v70,2013-02-05 19:44:00,
2013-02-05 14:50:00,23.0,7.6,29.96,SE,135,1.0,5.0,51,0.00,,,0.00,Weather View 32 v70,2013-02-05 19:50:00,
2013-02-05 14:59:00,23.0,8.0,29.96,SSE,158,3.0,5.0,52,0.00,,,0.00,Weather View 32 v70,2013-02-05 19:59:00,
2013-02-05 15:09:00,23.0,7.6,29.95,SSE,158,2.0,5.0,51,0.00,,,0.00,Weather View 32 v70,2013-02-05 20:09:00,
2013-02-05 15:14:00,23.0,8.0,29.95,SE,135,1.0,5.0,52,0.00,,,0.00,Weather View 32 v70,2013-02-05 20:14:00,
2013-02-05 15:19:00,23.0,7.1,29.94,SE,135,3.0,5.0,50,0.00,,,0.00,Weather View 32 v70,2013-02-05 20:19:00,
2013-02-05 15:24:00,23.0,7.6,29.95,SE,135,4.0,5.0,51,0.00,,,0.00,Weather View 32 v70,2013-02-05 20:24:00,
2013-02-05 15:34:00,23.0,7.6,29.94,South,180,2.0,5.0,51,0.00,,,0.00,Weather View 32 v70,2013-02-05 20:34:00,
2013-02-05 15:39:00,23.0,8.0,29.95,WNW,292,1.0,5.0,52,0.00,,,0.00,Weather View 32 v70,2013-02-05 20:39:00,
2013-02-05 15:49:00,23.0,7.1,29.94,SW,225,0.0,5.0,50,0.00,,,0.00,Weather View 32 v70,2013-02-05 20:49:00,
2013-02-05 15:59:00,22.0,5.8,29.95,WNW,292,0.0,5.0,49,0.00,,,0.00,Weather View 32 v70,2013-02-05 20:59:00,
2013-02-05 16:09:00,22.0,7.5,29.94,SW,225,0.0,5.0,53,0.00,,,0.00,Weather View 32 v70,2013-02-05 21:09:00,
2013-02-05 16:14:00,22.0,8.7,29.94,WSW,248,0.0,5.0,56,0.00,,,0.00,Weather View 32 v70,2013-02-05 21:14:00,
2013-02-05 16:19:00,21.0,7.4,29.94,SW,225,1.0,5.0,55,0.00,,,0.00,Weather View 32 v70,2013-02-05 21:19:00,
2013-02-05 16:29:00,21.0,7.4,29.93,SW,225,0.0,3.0,55,0.00,,,0.00,Weather View 32 v70,2013-02-05 21:29:00,
2013-02-05 16:39:00,20.0,7.2,29.94,SW,225,0.0,3.0,57,0.00,,,0.00,Weather View 32 v70,2013-02-05 21:39:00,
2013-02-05 16:44:00,20.0,8.0,29.93,WNW,292,0.0,3.0,59,0.00,,,0.00,Weather View 32 v70,2013-02-05 21:44:00,
2013-02-05 16:51:00,20.0,7.2,29.93,WSW,248,0.0,1.0,57,0.00,,,0.00,Weather View 32 v70,2013-02-05 21:51:00,
2013-02-05 16:59:00,20.0,8.3,29.94,South,180,0.0,1.0,60,0.00,,,0.00,Weather View 32 v70,2013-02-05 21:59:00,
2013-02-05 17:09:00,19.0,8.5,29.94,WSW,248,0.0,2.0,63,0.00,,,0.00,Weather View 32 v70,2013-02-05 22:09:00,
2013-02-05 17:14:00,19.0,7.8,29.94,West,270,0.0,2.0,61,0.00,,,0.00,Weather View 32 v70,2013-02-05 22:14:00,
2013-02-05 17:24:00,18.0,6.8,29.95,WSW,248,0.0,2.0,61,0.00,,,0.00,Weather View 32 v70,2013-02-05 22:24:00,
2013-02-05 17:34:00,18.0,6.8,29.94,West,270,0.0,2.0,61,0.00,,,0.00,Weather View 32 v70,2013-02-05 22:34:00,
2013-02-05 17:39:00,18.0,7.2,29.93,WSW,248,0.0,2.0,62,0.00,,,0.00,Weather View 32 v70,2013-02-05 22:39:00,
2013-02-05 17:49:00,18.0,7.9,29.94,SW,225,0.0,2.0,64,0.00,,,0.00,Weather View 32 v70,2013-02-05 22:49:00,
2013-02-05 17:59:00,18.0,8.2,29.92,SW,225,0.0,2.0,65,0.00,,,0.00,Weather View 32 v70,2013-02-05 22:59:00,
2013-02-05 18:04:00,18.0,8.6,29.93,West,270,0.0,1.0,66,0.00,,,0.00,Weather View 32 v70,2013-02-05 23:04:00,
2013-02-05 18:14:00,17.0,7.6,29.92,SSW,202,0.0,1.0,66,0.00,,,0.00,Weather View 32 v70,2013-02-05 23:14:00,
2013-02-05 18:19:00,17.0,7.9,29.93,WSW,248,0.0,1.0,67,0.00,,,0.00,Weather View 32 v70,2013-02-05 23:19:00,
2013-02-05 18:29:00,17.0,8.3,29.93,SW,225,0.0,1.0,68,0.00,,,0.00,Weather View 32 v70,2013-02-05 23:29:00,
2013-02-05 18:39:00,17.0,7.9,29.94,WSW,248,0.0,1.0,67,0.00,,,0.00,Weather View 32 v70,2013-02-05 23:39:00,
2013-02-05 18:44:00,17.0,7.9,29.93,WSW,248,0.0,1.0,67,0.00,,,0.00,Weather View 32 v70,2013-02-05 23:44:00,
2013-02-05 18:49:00,17.0,7.9,29.94,WSW,248,0.0,1.0,67,0.00,,,0.00,Weather View 32 v70,2013-02-05 23:49:00,
2013-02-05 18:59:00,16.0,7.3,29.93,WSW,248,0.0,1.0,68,0.00,,,0.00,Weather View 32 v70,2013-02-05 23:59:00,
2013-02-05 19:09:00,16.0,7.3,29.93,SW,225,0.0,1.0,68,0.00,,,0.00,Weather View 32 v70,2013-02-06 00:09:00,
2013-02-05 19:19:00,16.0,7.6,29.93,SW,225,0.0,1.0,69,0.00,,,0.00,Weather View 32 v70,2013-02-06 00:19:00,
2013-02-05 19:24:00,16.0,7.9,29.93,South,180,0.0,1.0,70,0.00,,,0.00,Weather View 32 v70,2013-02-06 00:24:00,
2013-02-05 19:34:00,16.0,7.9,29.93,SW,225,0.0,0.0,70,0.00,,,0.00,Weather View 32 v70,2013-02-06 00:34:00,
2013-02-05 19:39:00,16.0,7.9,29.93,SW,225,0.0,0.0,70,0.00,,,0.00,Weather View 32 v70,2013-02-06 00:39:00,
2013-02-05 19:49:00,16.0,7.9,29.94,SW,225,0.0,0.0,70,0.00,,,0.00,Weather View 32 v70,2013-02-06 00:49:00,
2013-02-05 19:54:00,16.0,7.9,29.94,SE,135,0.0,0.0,70,0.00,,,0.00,Weather View 32 v70,2013-02-06 00:54:00,
2013-02-05 20:04:00,16.0,8.3,29.95,SSW,202,0.0,0.0,71,0.00,,,0.00,Weather View 32 v70,2013-02-06 01:04:00,
2013-02-05 20:09:00,15.0,7.3,29.94,SW,225,0.0,0.0,71,0.00,,,0.00,Weather View 32 v70,2013-02-06 01:09:00,
2013-02-05 20:14:00,15.0,7.3,29.94,West,270,0.0,0.0,71,0.00,,,0.00,Weather View 32 v70,2013-02-06 01:14:00,
2013-02-05 20:24:00,16.0,8.6,29.95,SSW,202,0.0,0.0,72,0.00,,,0.00,Weather View 32 v70,2013-02-06 01:24:00,
2013-02-05 20:29:00,16.0,8.9,29.93,SSW,202,0.0,1.0,73,0.00,,,0.00,Weather View 32 v70,2013-02-06 01:29:00,
2013-02-05 20:34:00,16.0,9.5,29.95,SSW,202,0.0,1.0,75,0.00,,,0.00,Weather View 32 v70,2013-02-06 01:34:00,
2013-02-05 20:44:00,16.0,9.5,29.95,SSW,202,0.0,1.0,75,0.00,,,0.00,Weather View 32 v70,2013-02-06 01:44:00,
2013-02-05 20:49:00,16.0,9.2,29.95,SSW,202,0.0,1.0,74,0.00,,,0.00,Weather View 32 v70,2013-02-06 01:49:00,
2013-02-05 20:54:00,16.0,9.8,29.94,South,180,0.0,1.0,76,0.00,,,0.00,Weather View 32 v70,2013-02-06 01:54:00,
2013-02-05 21:04:00,17.0,10.7,29.95,SSE,158,1.0,3.0,76,0.00,,,0.00,Weather View 32 v70,2013-02-06 02:04:00,
2013-02-05 21:14:00,17.0,10.7,29.95,South,180,0.0,3.0,76,0.00,,,0.00,Weather View 32 v70,2013-02-06 02:14:00,
2013-02-05 21:19:00,17.0,10.7,29.95,South,180,0.0,3.0,76,0.00,,,0.00,Weather View 32 v70,2013-02-06 02:19:00,
2013-02-05 21:29:00,17.0,10.7,29.95,SSW,202,0.0,3.0,76,0.00,,,0.00,Weather View 32 v70,2013-02-06 02:29:00,
2013-02-05 21:34:00,17.0,10.7,29.95,SSW,202,1.0,3.0,76,0.00,,,0.00,Weather View 32 v70,2013-02-06 02:34:00,
2013-02-05 21:44:00,17.0,11.0,29.95,SE,135,0.0,3.0,77,0.00,,,0.00,Weather View 32 v70,2013-02-06 02:44:00,
2013-02-05 21:54:00,17.0,11.0,29.95,South,180,0.0,3.0,77,0.00,,,0.00,Weather View 32 v70,2013-02-06 02:54:00,
2013-02-05 21:59:00,17.0,11.6,29.94,South,180,7.0,7.0,79,0.00,,,0.00,Weather View 32 v70,2013-02-06 02:59:00,
2013-02-05 22:09:00,17.0,11.9,29.94,SE,135,3.0,9.0,80,0.00,,,0.00,Weather View 32 v70,2013-02-06 03:09:00,
2013-02-05 22:19:00,18.0,12.9,29.93,South,180,7.0,9.0,80,0.00,,,0.00,Weather View 32 v70,2013-02-06 03:19:00,
2013-02-05 22:29:00,18.0,12.6,29.93,SSE,158,3.0,9.0,79,0.00,,,0.00,Weather View 32 v70,2013-02-06 03:29:00,
2013-02-05 22:39:00,18.0,12.6,29.93,SE,135,3.0,9.0,79,0.00,,,0.00,Weather View 32 v70,2013-02-06 03:39:00,
2013-02-05 22:49:00,18.0,12.6,29.93,SE,135,3.0,9.0,79,0.00,,,0.00,Weather View 32 v70,2013-02-06 03:49:00,
2013-02-05 22:55:00,18.0,12.6,29.93,South,180,1.0,9.0,79,0.00,,,0.00,Weather View 32 v70,2013-02-06 03:55:00,
2013-02-05 23:04:00,18.0,12.9,29.93,West,270,1.0,9.0,80,0.00,,,0.00,Weather View 32 v70,2013-02-06 04:04:00,
2013-02-05 23:14:00,18.0,12.9,29.93,SE,135,1.0,9.0,80,0.00,,,0.00,Weather View 32 v70,2013-02-06 04:14:00,
2013-02-05 23:24:00,18.0,12.9,29.93,South,180,0.0,8.0,80,0.00,,,0.00,Weather View 32 v70,2013-02-06 04:24:00,
2013-02-05 23:29:00,17.0,12.2,29.93,SSW,202,0.0,6.0,81,0.00,,,0.00,Weather View 32 v70,2013-02-06 04:29:00,
2013-02-05 23:41:00,17.0,12.2,29.94,SW,225,0.0,6.0,81,0.00,,,0.00,Weather View 32 v70,2013-02-06 04:41:00,
2013-02-05 23:49:00,17.0,12.2,29.94,South,180,1.0,5.0,81,0.00,,,0.00,Weather View 32 v70,2013-02-06 04:49:00,
2013-02-05 23:59:00,18.0,13.2,29.94,SSW,202,1.0,3.0,81,0.00,,,0.00,Weather View 32 v70,2013-02-06 04:59:00,